* Astronomy

Members Login
Username 
 
Password 
    Remember Me  
Post Info TOPIC: Asteroid 2012 BV13


L

Posts: 131433
Date:
Asteroid 2012 BV13
Permalink  
 


Orbital elements:
2012 BV13                                                Earth MOID = 0.0087 AU
Epoch 2012 Mar. 14.0 TT = JDT 2456000.5                 MPC
M 300.03723              (2000.0)            P               Q
n   1.07506479     Peri.  305.80000     -0.46258889     +0.86593792
a   0.9437268      Node   295.57778     -0.73012468     -0.49376731
e   0.1009066      Incl.   12.17081     -0.50292094     -0.07965777
P   0.92           H   22.1           G   0.15           U   8

MPEC 2012 - B33



__________________
Page 1 of 1  sorted by
 
Quick Reply

Please log in to post quick replies.



Create your own FREE Forum
Report Abuse
Powered by ActiveBoard